Humidity-temperature Sensor

Selected Measurement Type: Relative Humidity

 
Relative Humidity [%]     6 entries per hour
Showing data from 4/2/2015 (00:00:00 Z) to 3/30/2015 (00:01:00 Z)
Previous Next [ Day | 3-Days | 7-Days ]
First Last
Prev [ Day | 3-Days | 7-Days ] Next
First Last

Start Time:     :
End Time:     :     
Time (in GMT) :00 :50 :40 :30 :20 :10
Previous Next [ Day | 3-Days | 7-Days ]
First Last
Prev [ Day | 3-Days | 7-Days ] Next
First Last


123 => good data
MM => data is determined as missing
-- => data not received/configured
Back to Top Back to Top
4/2/2015 00:00 to 23:10 -- 99.88 99.17 93.43 86.27 85.85
4/1/2015 23:00 to 22:10 87.02 88.21 89.43 91.01 90.83 89.49
4/1/2015 22:00 to 21:10 87.95 87.02 84.92 83.00 84.40 85.55
4/1/2015 21:00 to 20:10 85.72 87.39 89.58 90.64 92.69 93.32
4/1/2015 20:00 to 19:10 93.86 89.17 88.65 88.30 87.91 87.65
4/1/2015 19:00 to 18:10 87.43 87.46 87.63 88.50 88.15 87.67
4/1/2015 18:00 to 17:10 88.17 88.13 88.52 88.37 89.27 90.16
4/1/2015 17:00 to 16:10 89.06 88.52 88.71 86.96 88.30 88.39
4/1/2015 16:00 to 15:10 88.84 90.08 90.05 87.78 87.33 87.15
4/1/2015 15:00 to 14:10 87.07 86.68 87.04 87.15 88.26 87.89
4/1/2015 14:00 to 13:10 88.65 88.84 88.69 88.60 88.86 88.52
4/1/2015 13:00 to 12:10 88.13 87.91 87.13 87.33 88.28 88.30
4/1/2015 12:00 to 11:10 88.69 88.97 89.14 89.36 89.51 89.97
4/1/2015 11:00 to 10:10 89.66 89.43 88.82 88.52 87.80 87.50
4/1/2015 10:00 to 9:10 86.89 86.53 87.00 87.07 87.00 87.04
4/1/2015 09:00 to 8:10 86.70 86.44 86.40 86.68 86.61 86.98
4/1/2015 08:00 to 7:10 86.72 86.87 86.57 87.09 86.61 86.53
4/1/2015 07:00 to 6:10 86.29 86.72 87.30 87.00 86.46 86.42
4/1/2015 06:00 to 5:10 85.68 85.79 85.46 86.05 85.42 84.43
4/1/2015 05:00 to 4:10 85.29 86.07 85.12 84.95 85.14 83.97
4/1/2015 04:00 to 3:10 84.82 84.14 84.08 83.45 83.15 83.32
4/1/2015 03:00 to 2:10 83.37 81.83 82.95 82.37 82.26 82.76
4/1/2015 02:00 to 1:10 81.55 82.54 81.33 81.40 81.37 81.07
4/1/2015 01:00 to 0:10 81.59 81.57 80.79 81.48 82.61 82.37
4/1/2015 00:00 to 23:10 82.22 82.00 82.26 82.17 82.67 82.76
3/31/2015 23:00 to 22:10 82.30 81.35 81.27 81.92 82.85 83.08
3/31/2015 22:00 to 21:10 82.80 82.82 83.04 82.63 83.13 83.26
3/31/2015 21:00 to 20:10 82.56 83.28 82.56 82.28 82.33 82.15
3/31/2015 20:00 to 19:10 82.91 80.49 81.70 81.53 81.59 81.57
3/31/2015 19:00 to 18:10 81.59 81.31 80.70 81.92 81.29 80.25
3/31/2015 18:00 to 17:10 81.46 80.70 79.49 80.53 79.66 81.63
3/31/2015 17:00 to 16:10 80.31 79.62 80.16 79.64 81.22 81.31
3/31/2015 16:00 to 15:10 80.16 81.20 80.79 82.39 81.89 82.80
3/31/2015 15:00 to 14:10 79.95 81.27 81.74 82.61 81.79 82.46
3/31/2015 14:00 to 13:10 82.11 83.08 83.13 82.59 83.73 83.65
3/31/2015 13:00 to 12:10 83.17 82.39 82.37 83.41 83.54 83.02
3/31/2015 12:00 to 11:10 83.28 82.72 82.33 83.86 82.67 82.00
3/31/2015 11:00 to 10:10 82.09 82.35 82.26 82.41 81.87 80.36
3/31/2015 10:00 to 9:10 82.72 81.53 83.00 83.60 81.42 82.17
3/31/2015 09:00 to 8:10 81.92 82.61 82.41 81.89 81.48 81.16
3/31/2015 08:00 to 7:10 81.22 81.66 81.92 81.74 83.26 82.17
3/31/2015 07:00 to 6:10 82.74 81.44 82.00 82.33 81.57 81.03
3/31/2015 06:00 to 5:10 80.42 82.02 80.62 81.16 79.53 81.33
3/31/2015 05:00 to 4:10 81.20 79.95 82.02 80.10 79.95 80.49
3/31/2015 04:00 to 3:10 79.51 79.32 78.32 79.84 79.79 78.15
3/31/2015 03:00 to 2:10 77.91 78.19 77.78 76.92 77.46 78.19
3/31/2015 02:00 to 1:10 78.11 79.01 78.97 79.19 78.93 77.85
3/31/2015 01:00 to 0:10 78.84 78.54 79.27 79.95 79.17 80.05
3/31/2015 00:00 to 23:10 79.99 80.08 80.14 80.64 80.46 79.75
3/30/2015 23:00 to 22:10 79.19 80.90 80.79 81.57 80.83 81.01
3/30/2015 22:00 to 21:10 80.42 80.98 80.23 80.12 80.68 81.03
3/30/2015 21:00 to 20:10 80.57 80.64 80.88 80.36 81.31 81.57
3/30/2015 20:00 to 19:10 81.83 80.79 80.77 81.98 81.07 81.48
3/30/2015 19:00 to 18:10 80.29 81.20 81.07 81.24 81.03 81.27
3/30/2015 18:00 to 17:10 81.20 80.29 80.36 79.82 81.48 82.43
3/30/2015 17:00 to 16:10 81.98 82.72 81.81 80.77 79.38 80.51
3/30/2015 16:00 to 15:10 81.92 80.81 80.34 81.53 81.37 82.15
3/30/2015 15:00 to 14:10 81.22 81.44 81.79 81.14 79.66 81.63
3/30/2015 14:00 to 13:10 82.09 81.55 81.66 81.83 80.29 81.72
3/30/2015 13:00 to 12:10 81.07 80.79 80.90 81.81 81.96 81.85
3/30/2015 12:00 to 11:10 83.15 82.24 81.57 81.46 81.18 81.63
3/30/2015 11:00 to 10:10 81.89 81.83 82.09 81.42 81.16 82.41
3/30/2015 10:00 to 9:10 82.87 82.95 83.17 82.76 83.39 82.54
3/30/2015 09:00 to 8:10 82.20 81.53 80.98 82.24 81.59 82.30
3/30/2015 08:00 to 7:10 81.70 83.02 82.46 82.78 82.35 81.18
3/30/2015 07:00 to 6:10 82.50 81.05 81.01 80.59 80.55 80.31
3/30/2015 06:00 to 5:10 81.57 80.44 82.46 82.50 81.03 82.74
3/30/2015 05:00 to 4:10 81.96 80.62 82.89 82.74 81.57 81.18
3/30/2015 04:00 to 3:10 82.48 81.96 81.29 81.74 81.55 80.94
3/30/2015 03:00 to 2:10 79.32 79.58 79.19 79.25 79.64 79.56
3/30/2015 02:00 to 1:10 77.69 77.26 78.78 78.63 78.26 78.58
3/30/2015 01:00 to 0:10 78.69 78.60 78.28 79.10 78.78 80.40